Back to catalog

COSMOS 839 DEB

AliveLEO
NORAD 13946·DEBRIS·🇷🇺 Russia

Launched Jul 8, 1976 from Plesetsk Cosmodrome

Loading…

Next Passes (next 24 hours)

TLE

FreshSource: Space-Track

Epoch: Sep 14, 2026, 09:13 UTC

1 13946U 76067BE  26257.38449103  .00000997  00000-0  30652-2 0  9996
2 13946  66.0673  38.3590 0651313 248.4286 133.6514 12.52505893983917

Track COSMOS 839 DEB in real time with AllMySat

Download on the App Store